| time (UTC) | temp F | wind direction | speed knots | gust knots | rain 1hr in | rain 24hr in | rain mn in | humidity % | barometer mb |
| 20260506221501 | 62 | 310 | 1.7 | 4.3 | 0.00 | 0.15 | 0.15 | 45 | 1007.2 |
| 20260506220001 | 62 | 291 | 1.7 | 5.2 | 0.00 | 0.15 | 0.15 | 39 | 1007.1 |
| 20260506214501 | 61 | 284 | 1.7 | 5.2 | 0.00 | 0.15 | 0.15 | 34 | 1006.9 |
| 20260506213002 | 60 | 278 | 1.7 | 4.3 | 0.00 | 0.15 | 0.15 | 37 | 1006.7 |
| 20260506211502 | 60 | 290 | 1.7 | 6.1 | 0.00 | 0.15 | 0.15 | 37 | 1006.7 |
| 20260506210002 | 60 | 277 | 3.5 | 7.8 | 0.00 | 0.15 | 0.15 | 37 | 1006.7 |
| 20260506203001 | 60 | 329 | 4.3 | 10.4 | 0.00 | 0.15 | 0.15 | 35 | 1006.5 |
| 20260506201501 | 60 | 284 | 2.6 | 6.1 | 0.00 | 0.15 | 0.15 | 35 | 1006.3 |
| 20260506200002 | 59 | 285 | 1.7 | 5.2 | 0.00 | 0.15 | 0.15 | 35 | 1006.6 |
| 20260506194500 | 59 | 338 | 2.6 | 7.0 | 0.00 | 0.15 | 0.15 | 37 | 1006.8 |
| 20260506193000 | 59 | 359 | 2.6 | 5.2 | 0.01 | 0.15 | 0.15 | 38 | 1006.9 |
| 20260506191500 | 59 | 301 | 3.5 | 7.8 | 0.02 | 0.15 | 0.15 | 40 | 1007.1 |
| 20260506185959 | 59 | 225 | 3.5 | 7.8 | 0.02 | 0.15 | 0.15 | 43 | 1007.2 |
| 20260506184500 | 59 | 293 | 3.5 | 8.7 | 0.02 | 0.15 | 0.15 | 47 | 1007.3 |
| 20260506183000 | 59 | 333 | 2.6 | 8.7 | 0.02 | 0.14 | 0.14 | 50 | 1007.3 |
| 20260506180000 | 59 | 321 | 3.5 | 8.7 | 0.02 | 0.13 | 0.13 | 55 | 1007.4 |
| 20260506174500 | 59 | 7 | 3.5 | 10.4 | 0.03 | 0.13 | 0.13 | 56 | 1007.5 |
| 20260506173001 | 59 | 259 | 2.6 | 6.1 | 0.03 | 0.12 | 0.12 | 56 | 1007.6 |
| 20260506171500 | 59 | 301 | 3.5 | 9.6 | 0.03 | 0.11 | 0.11 | 56 | 1007.8 |
| 20260506170000 | 59 | 351 | 1.7 | 7.0 | 0.05 | 0.11 | 0.11 | 58 | 1007.9 |
| 20260506162959 | 60 | 96 | 1.7 | 4.3 | 0.06 | 0.09 | 0.09 | 66 | 1007.5 |
| 20260506161500 | 60 | 111 | 1.7 | 5.2 | 0.06 | 0.08 | 0.08 | 67 | 1008.2 |
| 20260506160000 | 60 | 252 | 1.7 | 5.2 | 0.04 | 0.06 | 0.06 | 73 | 1008.9 |
| 20260506154459 | 60 | 193 | 2.6 | 6.1 | 0.05 | 0.05 | 0.05 | 77 | 1009.0 |
| 20260506151500 | 61 | 340 | 1.7 | 7.8 | 0.02 | 0.02 | 0.02 | 83 | 1008.8 |
| 20260506150001 | 61 | 359 | 1.7 | 3.5 | 0.02 | 0.02 | 0.02 | 85 | 1008.9 |
| 20260506144500 | 62 | 64 | 2.6 | 7.0 | 0.00 | 0.00 | 0.00 | 84 | 1008.9 |
| 20260506143000 | 63 | 269 | 3.5 | 7.8 | 0.00 | 0.00 | 0.00 | 81 | 1009.1 |
| 20260506141501 | 64 | 304 | 4.3 | 9.6 | 0.00 | 0.00 | 0.00 | 79 | 1008.8 |
| 20260506140001 | 63 | 330 | 2.6 | 7.8 | 0.00 | 0.00 | 0.00 | 81 | 1008.8 |
| 20260506134500 | 63 | 300 | 2.6 | 8.7 | 0.00 | 0.00 | 0.00 | 80 | 1008.9 |
| 20260506132959 | 63 | 313 | 2.6 | 8.7 | 0.00 | 0.00 | 0.00 | 80 | 1008.9 |
| 20260506131501 | 63 | 319 | 3.5 | 8.7 | 0.00 | 0.00 | 0.00 | 80 | 1009.1 |
| 20260506130001 | 63 | 323 | 2.6 | 8.7 | 0.00 | 0.00 | 0.00 | 80 | 1009.2 |
| 20260506124500 | 63 | 316 | 2.6 | 8.7 | 0.00 | 0.00 | 0.00 | 81 | 1009.2 |
| 20260506122959 | 63 | 309 | 1.7 | 5.2 | 0.00 | 0.00 | 0.00 | 81 | 1008.8 |
| 20260506115958 | 62 | 97 | 1.7 | 4.3 | 0.00 | 0.00 | 0.00 | 82 | 1009.0 |
| 20260506114459 | 62 | 110 | 1.7 | 7.0 | 0.00 | 0.00 | 0.00 | 82 | 1008.9 |
| 20260506112959 | 62 | 127 | 1.7 | 7.0 | 0.00 | 0.00 | 0.00 | 82 | 1009.0 |
| 20260506111459 | 62 | 158 | 2.6 | 5.2 | 0.00 | 0.00 | 0.00 | 82 | 1009.0 |
| 20260506104458 | 62 | 110 | 1.7 | 6.1 | 0.00 | 0.00 | 0.00 | 82 | 1008.6 |
| 20260506102958 | 62 | 216 | 2.6 | 9.6 | 0.00 | 0.00 | 0.00 | 83 | 1008.6 |
| 20260506101458 | 62 | 314 | 1.7 | 5.2 | 0.00 | 0.00 | 0.00 | 83 | 1008.5 |
| 20260506095958 | 62 | 102 | 1.7 | 4.3 | 0.00 | 0.07 | 0.00 | 83 | 1008.6 |
| 20260506094459 | 62 | 110 | 1.7 | 5.2 | 0.00 | 0.07 | 0.00 | 83 | 1008.6 |
| 20260506092959 | 62 | 128 | 2.6 | 7.0 | 0.00 | 0.07 | 0.00 | 83 | 1008.6 |
| 20260506091458 | 62 | 110 | 1.7 | 5.2 | 0.00 | 0.07 | 0.00 | 82 | 1008.6 |
| 20260506084500 | 62 | 91 | 2.6 | 6.1 | 0.00 | 0.07 | 0.00 | 81 | 1008.8 |
| 20260506083000 | 62 | 110 | 3.5 | 5.2 | 0.00 | 0.07 | 0.00 | 81 | 1008.7 |
| 20260506081459 | 63 | 94 | 2.6 | 4.3 | 0.00 | 0.07 | 0.00 | 80 | 1008.8 |
| 20260506071459 | 64 | 88 | 1.7 | 3.5 | 0.00 | 0.07 | 0.00 | 74 | 1009.0 |
| 20260506061459 | 64 | 60 | 0.9 | 5.2 | 0.00 | 0.07 | 0.00 | 71 | 1009.5 |
| 20260506044457 | 65 | 257 | 1.7 | 5.2 | 0.00 | 0.07 | 0.00 | 68 | 1009.9 |
| 20260506042957 | 65 | 358 | 1.7 | 7.0 | 0.00 | 0.07 | 0.00 | 67 | 1010.0 |
| 20260506041457 | 66 | 355 | 1.7 | 6.1 | 0.00 | 0.07 | 0.00 | 67 | 1009.9 |
| 20260506034459 | 66 | 18 | 1.7 | 5.2 | 0.00 | 0.07 | 0.07 | 65 | 1010.0 |
| 20260506032958 | 67 | 82 | 1.7 | 8.7 | 0.00 | 0.07 | 0.07 | 64 | 1009.9 |
| 20260506024459 | 69 | 360 | 1.7 | 4.3 | 0.00 | 0.07 | 0.07 | 56 | 1009.8 |
| 20260506022959 | 70 | 337 | 2.6 | 7.0 | 0.00 | 0.07 | 0.07 | 53 | 1009.8 |
| 20260506021458 | 70 | 359 | 1.7 | 6.1 | 0.00 | 0.07 | 0.07 | 53 | 1009.6 |
| 20260506020001 | 71 | 23 | 2.6 | 8.7 | 0.00 | 0.07 | 0.07 | 51 | 1009.6 |
| 20260506012959 | 71 | 94 | 3.5 | 14.8 | 0.00 | 0.07 | 0.07 | 51 | 1009.3 |
| 20260506011458 | 72 | 12 | 2.6 | 7.8 | 0.00 | 0.07 | 0.07 | 51 | 1009.2 |
| 20260506005957 | 72 | 340 | 2.6 | 11.3 | 0.00 | 0.07 | 0.07 | 51 | 1009.0 |
| 20260506001457 | 73 | 7 | 1.7 | 6.1 | 0.00 | 0.07 | 0.07 | 46 | 1008.5 |
| 20260505235958 | 74 | 351 | 2.6 | 8.7 | 0.00 | 0.07 | 0.07 | 44 | 1008.5 |
| 20260505232958 | 75 | 41 | 3.5 | 8.7 | 0.00 | 0.07 | 0.07 | 42 | 1008.4 |
| 20260505231458 | 76 | 354 | 4.3 | 9.6 | 0.00 | 0.07 | 0.07 | 40 | 1008.1 |
| 20260505225958 | 77 | 316 | 4.3 | 10.4 | 0.00 | 0.07 | 0.07 | 39 | 1008.1 |
| 20260505224458 | 77 | 309 | 6.1 | 16.5 | 0.00 | 0.07 | 0.07 | 38 | 1007.9 |
| 20260505222957 | 77 | 299 | 5.2 | 13.0 | 0.00 | 0.07 | 0.07 | 38 | 1007.9 |